Hourly Data Report for January 18, 2003

SHERBROOKE A
QUEBEC

45°26'00.000" N
71°41'00.000" W
241.40 m
7028124
71610
YSC

Download Data

Hourly Data (January 2003)
Hourly Data Report for January 18, 2003
TIME
LST
Temp Definition
°C
Dew Point Definition
°C
Rel Hum Definition
%
Precip. Amount Definition
mm

Wind Dir Definition
10's deg

Wind Spd Definition
km/h
Visibility Definition
km
Stn Press Definition
kPa
Hmdx Definition


Wind Chill Definition


Weather Definition


00:00 -29.9 -35.1 61     0 12.9 98.60      
01:00 -30.4 -35.7 60   9 6 15.0 98.62   -37  
02:00 -31.6 -37.2 58   10 4 15.0 98.71   -36  
03:00 -31.3 -36.9 58   9 4 15.0 98.74   -36  
04:00 -32.4 -37.8 59     0 15.0 98.76      
05:00 -31.8 -37.2 59   9 6 15.0 98.76   -39  
06:00 -32.6 -38.3 57   8 4 15.0 98.82   -37  
07:00 -32.7 -37.9 60   6 4 15.0 98.84   -37  
08:00 -31.0 -36.1 61   8 4 15.0 98.87   -36  
09:00 -26.6 -31.3 64     0 24.1 98.88     Clear
10:00 -21.9 -28.8 54     0 24.1 98.90     Clear
11:00 -18.7 -27.6 45   22 7 24.1 98.87   -24 Clear
12:00 -16.7 -26.4 43   20 11 24.1 98.77   -24 Mainly Clear
13:00 -15.5 -25.3 43   19 11 24.1 98.70   -22 Mainly Clear
14:00 -13.9 -23.8 43   19 7 24.1 98.65   -19 Mainly Clear
15:00 -13.2 -23.0 44   19 11 24.1 98.59   -19 Mainly Clear
16:00 -12.7 -23.2 41     0 24.1 98.57     Mainly Clear
17:00 -17.7 -24.5 55   13 9 24.1 98.53   -24 Mainly Clear
18:00 -20.5 -26.0 61   9 4 15.0 98.49   -24  
19:00 -20.8 -26.2 62   8 6 15.0 98.48   -26  
20:00 -21.9 -27.0 63   8 4 15.0 98.43   -26  
21:00 -22.7 -27.6 64   8 6 15.0 98.36   -28  
22:00 -23.4 -28.1 65   8 7 15.0 98.35   -30  
23:00 -23.5 -28.7 62   7 4 15.0 98.32   -27  

Notes on Data Quality.

Legend

  • E = Estimated
  • M = Missing
  • NA = Not Available*
  • [empty] = Indicates an unobserved value
Date modified: